Flag for Saudi Arabia Weather past 2 weeks in Haql, Saudi Arabia

Now
88 °F

Clear.


Feels Like: 84 °F
Forecast: 71 / 93 °F
Wind: 3 mph from North

Location: Eilat

Current Time: Apr 28, 2015 at 11:42:27 PM

Latest Report: Apr 28, 2015 at 9:50 PM


Visibility: 10 mi

Pressure: 29.89 "Hg

Humidity: 18%

Dew point: 39 °F

Location of HaqlLocation

Historic Weather in Haql — Graph

°F

Haql temperature yesterday

Maximum temperature yesterday: 100 °F (at 2:50 PM)
Minimum temperature yesterday: 75 °F (at 5:50 AM)
Average temperature yesterday: 88 °F

Past Weeks' High & Low Weather Summary

 TemperatureHumidityPressure
High104 °F (Apr 28, 12:50 PM)60% (Apr 19, 6:50 AM)30.27 "Hg (Apr 19, 6:50 AM)
Low59 °F (Apr 24, 5:50 AM)6% (Apr 21, 5:50 PM)29.77 "Hg (Apr 22, 4:50 PM)
Average81 °F26%30.00 "Hg
* Reported Apr 13 9:50 PM — Apr 28 9:50 PM, Haql, Weather by CustomWeather, © 2015

Note: Actual official high and low records may vary slightly from our data, if they occured in-between our weather recording intervals... More about our weather records

Advertising

Haql weather history for previous 24 hours

 ConditionsComfort  
Time TempWeatherWind HumidityBarometerVisibility
9:50 PM
Tue, Apr 28
88 °FClear.3 mph18%29.89 "Hg10 mi
8:50 PM88 °FClear.7 mph21%29.89 "Hg10 mi
7:50 PM93 °FSunny.6 mph13%29.86 "Hg10 mi
6:50 PM93 °FSunny.6 mph17%29.86 "Hg10 mi
5:50 PM95 °FSunny.7 mph14%29.86 "Hg10 mi
4:50 PM93 °FSunny.12 mph28%29.86 "Hg10 mi
3:50 PM104 °FSunny.7 mph8%29.86 "Hg10 mi
2:50 PM104 °FSunny.7 mph6%29.89 "Hg10 mi
1:50 PM104 °FSunny.7 mph7%29.89 "Hg10 mi
12:50 PM104 °FSunny.3 mph7%29.92 "Hg10 mi
11:50 AM99 °FSunny.6 mph8%29.92 "Hg10 mi
10:50 AM95 °FSunny.10 mph10%29.92 "Hg10 mi
9:50 AM91 °FSunny.14 mph10%29.92 "Hg10 mi
8:50 AM84 °FSunny.8 mph16%29.92 "Hg10 mi
7:50 AM79 °FSunny.10 mph17%29.92 "Hg10 mi
6:50 AM73 °FClear.10 mph22%29.89 "Hg10 mi
5:50 AM72 °FClear.9 mph23%29.89 "Hg10 mi
Weather by CustomWeather, © 2015

See weather overviewHow to use our weather pages